• In France
  • List of Countries
  • For 7 days
  • Water Temperature
  • Satellite Maps
  • Weather Map
  • Weather Widgets
  • user-avatar
    Login

    Hourly Weather Uncukul

    Today, 22 August, Wednesday

    Time Temperature Precipitation Wind Pressure Humidity
    00:00 +18°C° 0 mm 2 mps 694 mmHg 71%
    01:00 +18°C° 0 mm 2 mps 693 mmHg 68%
    02:00 +18°C° 0 mm 2 mps 693 mmHg 65%
    03:00 +18°C° 0 mm 2 mps 693 mmHg 65%
    04:00 +18°C° 0 mm 2 mps 693 mmHg 65%
    05:00 +18°C° 0 mm 2 mps 693 mmHg 64%
    06:00 +18°C° 0 mm 2 mps 693 mmHg 63%
    07:00 +21°C° 0 mm 2 mps 694 mmHg 57%
    08:00 +24°C° 0 mm 1 mps 694 mmHg 52%
    09:00 +26°C° 0 mm 1 mps 695 mmHg 46%
    10:00 +27°C° 0 mm 2 mps 694 mmHg 46%
    11:00 +27°C° 0 mm 2 mps 694 mmHg 45%
    12:00 +28°C° 0 mm 2 mps 694 mmHg 44%
    13:00 +28°C° 0.1 mm 2 mps 694 mmHg 46%
    14:00 +28°C° 0.1 mm 3 mps 694 mmHg 48%
    15:00 +28°C° 0.1 mm 3 mps 694 mmHg 49%
    16:00 +27°C° 0.2 mm 2 mps 694 mmHg 54%
    17:00 +26°C° 0.2 mm 2 mps 694 mmHg 59%
    18:00 +25°C° 0.2 mm 1 mps 694 mmHg 65%
    19:00 +24°C° 0.1 mm 1 mps 694 mmHg 67%
    20:00 +23°C° 0.1 mm 1 mps 694 mmHg 70%
    21:00 +22°C° 0.1 mm 1 mps 694 mmHg 72%
    22:00 +20°C° 0 mm 2 mps 694 mmHg 73%
    23:00 +20°C° 0 mm 2 mps 694 mmHg 74%

    Tomorrow, 23 August, Thursday

    Time Temperature Precipitation Wind Pressure Humidity
    00:00 +19°C° 0 mm 2 mps 694 mmHg 75%
    01:00 +19°C° 0 mm 2 mps 694 mmHg 75%
    02:00 +19°C° 0 mm 2 mps 694 mmHg 75%
    03:00 +18°C° 0 mm 2 mps 694 mmHg 75%
    04:00 +18°C° 0 mm 2 mps 694 mmHg 73%
    05:00 +19°C° 0 mm 2 mps 694 mmHg 72%
    06:00 +19°C° 0 mm 2 mps 694 mmHg 70%
    07:00 +21°C° 0 mm 2 mps 695 mmHg 63%
    08:00 +24°C° 0 mm 2 mps 695 mmHg 55%
    09:00 +26°C° 0 mm 2 mps 696 mmHg 48%
    10:00 +27°C° 0 mm 2 mps 696 mmHg 46%
    11:00 +28°C° 0 mm 2 mps 696 mmHg 44%
    12:00 +28°C° 0 mm 3 mps 696 mmHg 42%
    13:00 +28°C° 0 mm 3 mps 696 mmHg 43%
    14:00 +28°C° 0 mm 3 mps 696 mmHg 44%
    15:00 +28°C° 0 mm 3 mps 696 mmHg 45%
    16:00 +27°C° 0 mm 3 mps 696 mmHg 50%
    17:00 +26°C° 0 mm 2 mps 695 mmHg 55%
    18:00 +25°C° 0 mm 2 mps 695 mmHg 60%
    19:00 +23°C° 0 mm 2 mps 695 mmHg 64%
    20:00 +21°C° 0 mm 2 mps 696 mmHg 69%
    21:00 +20°C° 0 mm 1 mps 696 mmHg 74%
    22:00 +20°C° 0 mm 1 mps 696 mmHg 74%
    23:00 +19°C° 0 mm 2 mps 696 mmHg 75%

    Day after tomorrow, 24 August, Friday

    Time Temperature Precipitation Wind Pressure Humidity
    00:00 +18°C° 0 mm 2 mps 696 mmHg 76%
    01:00 +18°C° 0 mm 2 mps 696 mmHg 75%
    02:00 +18°C° 0 mm 2 mps 696 mmHg 75%
    03:00 +18°C° 0 mm 2 mps 696 mmHg 75%
    04:00 +18°C° 0 mm 2 mps 696 mmHg 75%
    05:00 +18°C° 0 mm 2 mps 696 mmHg 74%
    06:00 +18°C° 0 mm 2 mps 696 mmHg 74%
    07:00 +20°C° 0 mm 2 mps 696 mmHg 68%
    08:00 +22°C° 0 mm 3 mps 696 mmHg 63%
    09:00 +25°C° 0 mm 3 mps 697 mmHg 57%
    10:00 +26°C° 0 mm 3 mps 696 mmHg 56%
    11:00 +27°C° 0 mm 4 mps 696 mmHg 56%
    12:00 +27°C° 0 mm 4 mps 696 mmHg 55%
    13:00 +27°C° 0.1 mm 4 mps 696 mmHg 56%
    14:00 +27°C° 0.1 mm 4 mps 696 mmHg 58%
    15:00 +27°C° 0.1 mm 4 mps 695 mmHg 59%
    16:00 +26°C° 0.2 mm 4 mps 695 mmHg 64%
    17:00 +24°C° 0.2 mm 3 mps 695 mmHg 68%
    18:00 +22°C° 0.2 mm 3 mps 695 mmHg 73%
    19:00 +21°C° 0.1 mm 3 mps 695 mmHg 76%
    20:00 +20°C° 0.1 mm 2 mps 695 mmHg 78%
    21:00 +19°C° 0.1 mm 2 mps 695 mmHg 81%
    22:00 +19°C° 0 mm 2 mps 695 mmHg 79%
    23:00 +18°C° 0 mm 2 mps 694 mmHg 77%

    25 August, Saturday

    Time Temperature Precipitation Wind Pressure Humidity
    00:00 +18°C° 0 mm 2 mps 694 mmHg 75%
    01:00 +18°C° 0 mm 2 mps 694 mmHg 74%
    02:00 +18°C° 0 mm 2 mps 694 mmHg 73%
    03:00 +18°C° 0 mm 2 mps 693 mmHg 72%
    04:00 +18°C° 0 mm 2 mps 693 mmHg 71%
    05:00 +18°C° 0 mm 2 mps 693 mmHg 71%
    06:00 +19°C° 0 mm 2 mps 693 mmHg 70%
    07:00 +21°C° 0 mm 2 mps 694 mmHg 62%
    08:00 +24°C° 0 mm 2 mps 694 mmHg 55%
    09:00 +27°C° 0 mm 2 mps 694 mmHg 48%
    10:00 +27°C° 0 mm 3 mps 694 mmHg 46%
    11:00 +28°C° 0 mm 3 mps 694 mmHg 44%
    12:00 +29°C° 0 mm 4 mps 694 mmHg 43%
    13:00 +29°C° 0.2 mm 4 mps 694 mmHg 44%
    14:00 +29°C° 0.2 mm 4 mps 693 mmHg 45%
    15:00 +29°C° 0.2 mm 4 mps 693 mmHg 46%
    16:00 +27°C° 0.1 mm 3 mps 693 mmHg 52%
    17:00 +26°C° 0.1 mm 3 mps 693 mmHg 57%
    18:00 +25°C° 0.1 mm 2 mps 693 mmHg 62%
    19:00 +23°C° 0 mm 2 mps 693 mmHg 66%
    20:00 +21°C° 0 mm 2 mps 693 mmHg 71%
    21:00 +20°C° 0 mm 2 mps 693 mmHg 75%
    22:00 +20°C° 0 mm 2 mps 692 mmHg 75%
    23:00 +20°C° 0 mm 2 mps 692 mmHg 75%

    26 August, Sunday

    Time Temperature Precipitation Wind Pressure Humidity
    00:00 +19°C° 0 mm 2 mps 692 mmHg 75%
    01:00 +19°C° 0 mm 2 mps 692 mmHg 74%
    02:00 +20°C° 0 mm 1 mps 692 mmHg 74%
    03:00 +20°C° 0 mm 1 mps 692 mmHg 73%
    04:00 +20°C° 0 mm 1 mps 692 mmHg 71%
    05:00 +20°C° 0 mm 1 mps 692 mmHg 69%
    06:00 +20°C° 0 mm 1 mps 692 mmHg 67%
    07:00 +21°C° 0 mm 2 mps 692 mmHg 60%
    08:00 +25°C° 0 mm 2 mps 692 mmHg 53%
    09:00 +27°C° 0 mm 2 mps 693 mmHg 46%
    10:00 +28°C° 0 mm 3 mps 693 mmHg 44%
    11:00 +29°C° 0 mm 3 mps 693 mmHg 42%
    12:00 +30°C° 0 mm 4 mps 692 mmHg 40%
    13:00 +29°C° 0 mm 4 mps 692 mmHg 41%
    14:00 +29°C° 0 mm 4 mps 692 mmHg 41%
    15:00 +29°C° 0 mm 4 mps 691 mmHg 41%
    16:00 +28°C° 0 mm 3 mps 691 mmHg 47%
    17:00 +26°C° 0 mm 3 mps 691 mmHg 52%
    18:00 +25°C° 0 mm 3 mps 691 mmHg 58%
    19:00 +23°C° 0 mm 2 mps 691 mmHg 62%
    20:00 +21°C° 0 mm 2 mps 691 mmHg 66%
    21:00 +20°C° 0 mm 2 mps 691 mmHg 70%
    22:00 +20°C° 0.1 mm 2 mps 691 mmHg 68%
    23:00 +19°C° 0.1 mm 2 mps 691 mmHg 66%

    27 August, Monday

    Time Temperature Precipitation Wind Pressure Humidity
    00:00 +19°C° 0.1 mm 2 mps 691 mmHg 65%
    01:00 +19°C° 0 mm 2 mps 691 mmHg 63%
    02:00 +20°C° 0 mm 1 mps 690 mmHg 61%
    03:00 +19°C° 0 mm 1 mps 690 mmHg 59%
    04:00 +20°C° 0 mm 1 mps 691 mmHg 59%
    05:00 +20°C° 0 mm 1 mps 691 mmHg 59%
    06:00 +20°C° 0 mm 1 mps 691 mmHg 58%
    07:00 +22°C° 0 mm 1 mps 691 mmHg 53%
    08:00 +24°C° 0 mm 2 mps 692 mmHg 49%
    09:00 +26°C° 0 mm 2 mps 692 mmHg 44%
    10:00 +27°C° 0 mm 2 mps 692 mmHg 43%
    11:00 +28°C° 0 mm 3 mps 692 mmHg 42%
    12:00 +29°C° 0 mm 3 mps 692 mmHg 41%
    13:00 +29°C° 0.2 mm 3 mps 692 mmHg 42%
    14:00 +28°C° 0.2 mm 3 mps 692 mmHg 44%
    15:00 +28°C° 0.2 mm 3 mps 692 mmHg 45%
    16:00 +27°C° 0.1 mm 3 mps 692 mmHg 51%
    17:00 +25°C° 0.1 mm 3 mps 692 mmHg 57%
    18:00 +24°C° 0.1 mm 2 mps 692 mmHg 63%
    19:00 +23°C° 0.2 mm 2 mps 692 mmHg 68%
    20:00 +21°C° 0.2 mm 1 mps 692 mmHg 74%
    21:00 +20°C° 0.2 mm 1 mps 692 mmHg 80%
    22:00 +20°C° 0.1 mm 1 mps 692 mmHg 80%
    23:00 +19°C° 0.1 mm 1 mps 692 mmHg 80%
    Show more